| time (UTC) | temp F | wind direction | speed knots | gust knots | rain 1hr in | rain 24hr in | rain mn in | humidity % | barometer mb |
| 20260504215315 | 71 | 71 | 0.0 | 0.0 | 0.00 | 0.00 | 0.00 | 60 | 1005.9 |
| 20260504214811 | 70 | 203 | 0.0 | 0.9 | 0.00 | 0.00 | 0.00 | 59 | 1006.2 |
| 20260504214308 | 71 | 296 | 1.7 | 1.7 | 0.00 | 0.00 | 0.00 | 59 | 1006.6 |
| 20260504213805 | 71 | 49 | 0.0 | 0.9 | 0.00 | 0.00 | 0.00 | 60 | 1006.8 |
| 20260504213301 | 72 | 256 | 2.6 | 4.3 | 0.00 | 0.00 | 0.00 | 59 | 1006.7 |
| 20260504212758 | 72 | 114 | 0.9 | 1.7 | 0.00 | 0.00 | 0.00 | 60 | 1006.6 |
| 20260504212254 | 71 | 3 | 0.0 | 0.9 | 0.00 | 0.00 | 0.00 | 62 | 1006.7 |
| 20260504211752 | 71 | 60 | 0.0 | 0.0 | 0.00 | 0.00 | 0.00 | 61 | 1006.7 |
| 20260504211248 | 70 | 57 | 0.0 | 0.9 | 0.00 | 0.00 | 0.00 | 64 | 1006.7 |
| 20260504210746 | 70 | 61 | 0.0 | 0.9 | 0.00 | 0.00 | 0.00 | 64 | 1006.9 |
| 20260504210243 | 70 | 2 | 0.0 | 0.0 | 0.00 | 0.00 | 0.00 | 67 | 1006.9 |
| 20260504205739 | 70 | 247 | 0.9 | 1.7 | 0.00 | 0.00 | 0.00 | 66 | 1007.0 |
| 20260504205238 | 69 | 258 | 2.6 | 2.6 | 0.00 | 0.00 | 0.00 | 64 | 1006.8 |
| 20260504204735 | 69 | 52 | 0.0 | 0.0 | 0.00 | 0.00 | 0.00 | 67 | 1006.4 |
| 20260504204233 | 68 | 39 | 0.0 | 0.0 | 0.00 | 0.00 | 0.00 | 68 | 1007.2 |
| 20260504203732 | 68 | 135 | 1.7 | 1.7 | 0.00 | 0.00 | 0.00 | 68 | 1007.4 |
| 20260504203224 | 68 | 142 | 1.7 | 1.7 | 0.00 | 0.00 | 0.00 | 66 | 1007.7 |
| 20260504202724 | 68 | 254 | 0.9 | 1.7 | 0.00 | 0.00 | 0.00 | 67 | 1007.9 |
| 20260504202221 | 68 | 83 | 0.0 | 0.9 | 0.00 | 0.00 | 0.00 | 69 | 1008.0 |
| 20260504201718 | 68 | 337 | 0.9 | 1.7 | 0.00 | 0.00 | 0.00 | 68 | 1008.0 |
| 20260504201215 | 68 | 292 | 0.9 | 0.9 | 0.00 | 0.00 | 0.00 | 69 | 1008.1 |
| 20260504200713 | 69 | 323 | 0.0 | 0.9 | 0.00 | 0.00 | 0.00 | 67 | 1007.9 |
| 20260504200209 | 68 | 42 | 0.0 | 0.0 | 0.00 | 0.00 | 0.00 | 67 | 1007.7 |
| 20260504195705 | 68 | 345 | 0.0 | 0.9 | 0.00 | 0.00 | 0.00 | 68 | 1007.7 |
| 20260504195201 | 68 | 334 | 0.0 | 0.0 | 0.00 | 0.00 | 0.00 | 67 | 1007.8 |
| 20260504194658 | 68 | 292 | 2.6 | 4.3 | 0.00 | 0.00 | 0.00 | 67 | 1007.7 |
| 20260504194148 | 68 | 58 | 0.0 | 0.0 | 0.00 | 0.00 | 0.00 | 67 | 1007.5 |
| 20260504193645 | 68 | 93 | 1.7 | 1.7 | 0.00 | 0.00 | 0.00 | 68 | 1007.6 |
| 20260504193143 | 68 | 9 | 0.0 | 0.9 | 0.00 | 0.00 | 0.00 | 67 | 1008.1 |
| 20260504192641 | 67 | 147 | 0.0 | 0.9 | 0.00 | 0.00 | 0.00 | 70 | 1008.1 |
| 20260504192139 | 68 | 71 | 0.9 | 1.7 | 0.00 | 0.00 | 0.00 | 71 | 1008.3 |
| 20260504191637 | 67 | 328 | 0.0 | 0.9 | 0.00 | 0.00 | 0.00 | 69 | 1008.6 |
| 20260504191133 | 67 | 336 | 0.9 | 1.7 | 0.00 | 0.00 | 0.00 | 68 | 1008.9 |
| 20260504190629 | 68 | 289 | 2.6 | 4.3 | 0.00 | 0.00 | 0.00 | 66 | 1008.6 |
| 20260504190126 | 68 | 72 | 0.9 | 0.9 | 0.00 | 0.00 | 0.00 | 69 | 1009.0 |
| 20260504185622 | 69 | 79 | 0.9 | 1.7 | 0.00 | 0.00 | 0.00 | 66 | 1009.0 |
| 20260504185119 | 70 | 295 | 0.9 | 0.9 | 0.00 | 0.00 | 0.00 | 64 | 1008.9 |
| 20260504184615 | 70 | 159 | 0.9 | 1.7 | 0.00 | 0.00 | 0.00 | 66 | 1008.4 |
| 20260504184110 | 70 | 100 | 1.7 | 1.7 | 0.00 | 0.00 | 0.00 | 63 | 1008.5 |
| 20260504183607 | 70 | 354 | 0.0 | 0.9 | 0.00 | 0.00 | 0.00 | 65 | 1008.5 |
| 20260504183105 | 70 | 257 | 1.7 | 1.7 | 0.00 | 0.00 | 0.00 | 62 | 1008.0 |
| 20260504182602 | 70 | 80 | 0.0 | 0.9 | 0.00 | 0.00 | 0.00 | 62 | 1007.9 |
| 20260504182100 | 71 | 245 | 1.7 | 2.6 | 0.00 | 0.00 | 0.00 | 60 | 1008.2 |
| 20260504181556 | 72 | 280 | 1.7 | 2.6 | 0.00 | 0.00 | 0.00 | 63 | 1008.3 |
| 20260504181054 | 72 | 61 | 1.7 | 1.7 | 0.00 | 0.00 | 0.00 | 59 | 1007.9 |
| 20260504180553 | 73 | 69 | 0.0 | 0.9 | 0.00 | 0.00 | 0.00 | 61 | 1008.0 |
| 20260504180052 | 71 | 24 | 0.9 | 0.9 | 0.00 | 0.00 | 0.00 | 63 | 1007.9 |
| 20260504175549 | 72 | 295 | 0.9 | 0.9 | 0.00 | 0.00 | 0.00 | 60 | 1007.6 |
| 20260504175045 | 73 | 273 | 1.7 | 1.7 | 0.00 | 0.00 | 0.00 | 58 | 1007.9 |
| 20260504174543 | 71 | 353 | 0.9 | 0.9 | 0.00 | 0.00 | 0.00 | 66 | 1007.9 |
| 20260504174040 | 71 | 328 | 0.0 | 0.9 | 0.00 | 0.00 | 0.00 | 62 | 1007.8 |
| 20260504173537 | 72 | 157 | 1.7 | 2.6 | 0.00 | 0.00 | 0.00 | 62 | 1007.7 |
| 20260504173034 | 72 | 354 | 0.9 | 1.7 | 0.00 | 0.00 | 0.00 | 61 | 1008.0 |
| 20260504172530 | 72 | 63 | 0.0 | 0.0 | 0.00 | 0.00 | 0.00 | 61 | 1007.9 |
| 20260504172027 | 71 | 116 | 0.9 | 1.7 | 0.00 | 0.00 | 0.00 | 62 | 1007.9 |
| 20260504171524 | 71 | 140 | 0.9 | 1.7 | 0.00 | 0.00 | 0.00 | 65 | 1008.3 |
| 20260504171021 | 71 | 337 | 2.6 | 5.2 | 0.00 | 0.00 | 0.00 | 58 | 1008.1 |
| 20260504170516 | 69 | 278 | 0.9 | 1.7 | 0.00 | 0.00 | 0.00 | 61 | 1007.9 |
| 20260504160437 | 69 | 73 | 1.7 | 1.7 | 0.00 | 0.00 | 0.00 | 61 | 1008.3 |
| 20260504150901 | 68 | 201 | 0.9 | 0.9 | 0.00 | 0.00 | 0.00 | 64 | 1009.0 |
| 20260504150358 | 67 | 272 | 0.9 | 0.9 | 0.00 | 0.00 | 0.00 | 65 | 1008.9 |
| 20260504141327 | 64 | 113 | 0.9 | 1.7 | 0.00 | 0.00 | 0.00 | 66 | 1009.3 |
| 20260504140824 | 62 | 59 | 0.0 | 0.9 | 0.00 | 0.00 | 0.00 | 69 | 1009.3 |
| 20260504140319 | 62 | 127 | 0.9 | 1.7 | 0.00 | 0.00 | 0.00 | 67 | 1009.3 |
| 20260504130748 | 59 | 85 | 0.0 | 0.0 | 0.00 | 0.00 | 0.00 | 70 | 1009.4 |
| 20260504130244 | 59 | 61 | 0.0 | 0.9 | 0.00 | 0.00 | 0.00 | 69 | 1009.7 |
| 20260504120208 | 53 | 61 | 0.9 | 0.9 | 0.00 | 0.00 | 0.00 | 73 | 1009.3 |
| 20260504110636 | 50 | 4 | 0.0 | 0.9 | 0.00 | 0.00 | 0.00 | 75 | 1009.3 |
| 20260504110132 | 50 | 60 | 0.0 | 0.0 | 0.00 | 0.00 | 0.00 | 76 | 1009.2 |
| 20260504100552 | 49 | 20 | 0.0 | 0.0 | 0.00 | 0.00 | 0.00 | 77 | 1009.8 |
| 20260504081945 | 49 | 20 | 0.0 | 0.0 | 0.00 | 0.00 | 0.00 | 75 | 1010.4 |
| 20260504081442 | 49 | 354 | 0.0 | 0.0 | 0.00 | 0.00 | 0.00 | 75 | 1010.5 |
| 20260504080938 | 50 | 288 | 0.0 | 0.0 | 0.00 | 0.00 | 0.00 | 73 | 1010.1 |
| 20260504080435 | 50 | 352 | 0.0 | 0.0 | 0.00 | 0.00 | 0.00 | 73 | 1010.4 |
| 20260504070403 | 51 | 1 | 0.0 | 0.0 | 0.00 | 0.00 | 0.00 | 71 | 1010.6 |
| 20260504050750 | 51 | 57 | 0.0 | 0.0 | 0.00 | 0.00 | 0.00 | 70 | 1012.0 |
| 20260504050247 | 51 | 108 | 0.0 | 0.9 | 0.00 | 0.00 | 0.00 | 70 | 1012.1 |
| 20260504045744 | 52 | 7 | 0.0 | 0.0 | 0.00 | 0.00 | 0.00 | 68 | 1011.9 |
| 20260504045239 | 52 | 330 | 0.9 | 1.7 | 0.00 | 0.00 | 0.00 | 67 | 1012.0 |
| 20260504044737 | 52 | 44 | 0.0 | 0.0 | 0.00 | 0.00 | 0.00 | 67 | 1012.1 |
| 20260504044234 | 52 | 352 | 0.0 | 0.0 | 0.00 | 0.00 | 0.00 | 68 | 1012.2 |
| 20260504043731 | 53 | 33 | 0.0 | 0.0 | 0.00 | 0.00 | 0.00 | 67 | 1012.3 |
| 20260504043228 | 53 | 42 | 0.0 | 0.0 | 0.00 | 0.00 | 0.00 | 65 | 1012.1 |
| 20260504042726 | 53 | 59 | 0.9 | 1.7 | 0.00 | 0.00 | 0.00 | 65 | 1012.2 |
| 20260504042222 | 54 | 0 | 0.0 | 0.0 | 0.00 | 0.00 | 0.00 | 64 | 1012.4 |
| 20260504041718 | 54 | 33 | 0.9 | 0.9 | 0.00 | 0.00 | 0.00 | 63 | 1012.3 |
| 20260504041215 | 54 | 230 | 0.9 | 0.9 | 0.00 | 0.00 | 0.00 | 64 | 1012.5 |
| 20260504040711 | 54 | 147 | 0.9 | 1.7 | 0.00 | 0.00 | 0.00 | 64 | 1012.6 |
| 20260504040208 | 54 | 108 | 0.0 | 0.9 | 0.00 | 0.00 | 0.00 | 64 | 1012.4 |
| 20260504035704 | 54 | 24 | 0.0 | 0.0 | 0.00 | 0.01 | 0.01 | 64 | 1012.6 |
| 20260504035202 | 54 | 25 | 0.0 | 0.0 | 0.00 | 0.01 | 0.01 | 65 | 1012.5 |
| 20260504034659 | 54 | 58 | 0.0 | 0.0 | 0.00 | 0.01 | 0.01 | 64 | 1012.5 |
| 20260504034156 | 53 | 356 | 0.0 | 0.0 | 0.00 | 0.01 | 0.01 | 65 | 1012.8 |
| 20260504033654 | 54 | 50 | 0.0 | 0.0 | 0.00 | 0.01 | 0.01 | 65 | 1012.6 |
| 20260504033151 | 54 | 32 | 0.0 | 0.0 | 0.00 | 0.01 | 0.01 | 64 | 1012.6 |
| 20260504032647 | 54 | 15 | 0.0 | 0.0 | 0.00 | 0.01 | 0.01 | 65 | 1012.7 |
| 20260504032145 | 53 | 23 | 0.0 | 0.9 | 0.00 | 0.01 | 0.01 | 64 | 1012.7 |
| 20260504031642 | 53 | 18 | 0.0 | 0.0 | 0.00 | 0.01 | 0.01 | 66 | 1012.6 |
| 20260504031138 | 53 | 20 | 0.0 | 0.0 | 0.00 | 0.01 | 0.01 | 66 | 1012.7 |
| 20260504030635 | 53 | 55 | 0.0 | 0.0 | 0.00 | 0.01 | 0.01 | 64 | 1012.9 |
| 20260504030132 | 52 | 126 | 0.9 | 1.7 | 0.00 | 0.01 | 0.01 | 66 | 1013.1 |
| 20260504025628 | 53 | 17 | 0.0 | 0.0 | 0.00 | 0.01 | 0.01 | 65 | 1013.1 |
| 20260504025125 | 53 | 5 | 0.0 | 0.0 | 0.00 | 0.01 | 0.01 | 67 | 1013.2 |
| 20260504024623 | 52 | 19 | 0.0 | 0.0 | 0.00 | 0.01 | 0.01 | 67 | 1013.3 |
| 20260504024119 | 52 | 8 | 0.0 | 0.0 | 0.00 | 0.01 | 0.01 | 67 | 1013.1 |
| 20260504023616 | 52 | 13 | 0.0 | 0.0 | 0.00 | 0.01 | 0.01 | 67 | 1013.2 |
| 20260504023112 | 52 | 355 | 0.0 | 0.0 | 0.00 | 0.01 | 0.01 | 68 | 1013.3 |
| 20260504022608 | 52 | 9 | 0.0 | 0.0 | 0.00 | 0.01 | 0.01 | 68 | 1013.2 |
| 20260504022104 | 51 | 2 | 0.0 | 0.0 | 0.00 | 0.01 | 0.01 | 71 | 1013.1 |
| 20260504021602 | 52 | 359 | 0.0 | 0.0 | 0.00 | 0.01 | 0.01 | 76 | 1013.3 |
| 20260504021059 | 51 | 10 | 0.0 | 0.0 | 0.00 | 0.01 | 0.01 | 76 | 1013.3 |
| 20260504020555 | 51 | 346 | 0.0 | 0.0 | 0.00 | 0.01 | 0.01 | 78 | 1013.3 |
| 20260504020052 | 51 | 5 | 0.0 | 0.0 | 0.00 | 0.01 | 0.01 | 78 | 1013.4 |
| 20260504015548 | 51 | 10 | 0.0 | 0.0 | 0.00 | 0.01 | 0.01 | 77 | 1013.2 |
| 20260504015044 | 51 | 6 | 0.0 | 0.0 | 0.00 | 0.01 | 0.01 | 76 | 1013.3 |
| 20260504014541 | 51 | 3 | 0.0 | 0.0 | 0.00 | 0.01 | 0.01 | 79 | 1013.2 |
| 20260504014038 | 51 | 356 | 0.0 | 0.0 | 0.00 | 0.01 | 0.01 | 77 | 1012.9 |
| 20260504013536 | 51 | 357 | 0.0 | 0.0 | 0.00 | 0.01 | 0.01 | 77 | 1013.1 |
| 20260504013032 | 51 | 6 | 0.0 | 0.0 | 0.00 | 0.01 | 0.01 | 75 | 1013.2 |
| 20260504012529 | 51 | 13 | 0.0 | 0.0 | 0.00 | 0.01 | 0.01 | 77 | 1012.8 |
| 20260504012022 | 51 | 345 | 0.0 | 0.0 | 0.00 | 0.01 | 0.01 | 77 | 1012.9 |
| 20260504011518 | 51 | 5 | 0.0 | 0.0 | 0.00 | 0.01 | 0.01 | 78 | 1012.7 |
| 20260504011014 | 51 | 10 | 0.0 | 0.0 | 0.00 | 0.01 | 0.01 | 77 | 1013.1 |
| 20260504010510 | 51 | 18 | 0.0 | 0.0 | 0.00 | 0.01 | 0.01 | 77 | 1013.2 |
| 20260504010006 | 51 | 77 | 0.9 | 0.9 | 0.00 | 0.01 | 0.01 | 76 | 1013.2 |
| 20260504005503 | 51 | 74 | 0.0 | 0.9 | 0.00 | 0.01 | 0.01 | 76 | 1012.9 |
| 20260504005001 | 51 | 45 | 0.0 | 0.0 | 0.00 | 0.01 | 0.01 | 76 | 1013.1 |
| 20260504004458 | 51 | 66 | 0.0 | 0.0 | 0.00 | 0.01 | 0.01 | 77 | 1013.5 |
| 20260504003955 | 51 | 15 | 0.0 | 0.0 | 0.00 | 0.01 | 0.01 | 76 | 1013.2 |
| 20260504003451 | 51 | 107 | 2.6 | 2.6 | 0.00 | 0.01 | 0.01 | 75 | 1013.3 |
| 20260504002948 | 51 | 108 | 2.6 | 2.6 | 0.00 | 0.01 | 0.01 | 76 | 1012.8 |
| 20260504002445 | 51 | 36 | 0.0 | 0.0 | 0.00 | 0.01 | 0.01 | 75 | 1013.2 |
| 20260504001942 | 51 | 49 | 0.0 | 0.0 | 0.00 | 0.01 | 0.01 | 77 | 1012.9 |
| 20260504001440 | 51 | 96 | 0.9 | 0.9 | 0.00 | 0.01 | 0.01 | 75 | 1012.9 |
| 20260504000936 | 51 | 23 | 0.0 | 0.0 | 0.00 | 0.01 | 0.01 | 77 | 1013.2 |
| 20260504000433 | 51 | 17 | 0.0 | 0.0 | 0.00 | 0.01 | 0.01 | 75 | 1013.2 |
| 20260503235930 | 51 | 53 | 0.0 | 0.0 | 0.00 | 0.01 | 0.01 | 74 | 1012.9 |
| 20260503235428 | 51 | 109 | 0.0 | 0.9 | 0.00 | 0.01 | 0.01 | 72 | 1013.2 |
| 20260503234925 | 52 | 43 | 0.0 | 0.0 | 0.00 | 0.01 | 0.01 | 73 | 1012.9 |
| 20260503234423 | 52 | 93 | 1.7 | 1.7 | 0.00 | 0.01 | 0.01 | 72 | 1012.8 |
| 20260503233921 | 52 | 98 | 1.7 | 1.7 | 0.00 | 0.01 | 0.01 | 71 | 1012.7 |
| 20260503233417 | 52 | 65 | 0.9 | 1.7 | 0.00 | 0.01 | 0.01 | 71 | 1012.8 |
| 20260503232913 | 52 | 95 | 0.0 | 0.9 | 0.00 | 0.01 | 0.01 | 71 | 1013.1 |
| 20260503232411 | 52 | 259 | 1.7 | 2.6 | 0.00 | 0.01 | 0.01 | 72 | 1012.9 |
| 20260503231908 | 52 | 122 | 3.5 | 5.2 | 0.00 | 0.01 | 0.01 | 72 | 1013.2 |
| 20260503231406 | 52 | 16 | 2.6 | 4.3 | 0.00 | 0.01 | 0.01 | 72 | 1013.1 |
| 20260503230902 | 52 | 124 | 3.5 | 4.3 | 0.00 | 0.01 | 0.01 | 72 | 1013.4 |
| 20260503230358 | 52 | 150 | 1.7 | 1.7 | 0.00 | 0.01 | 0.01 | 73 | 1013.8 |
| 20260503225856 | 52 | 124 | 1.7 | 1.7 | 0.00 | 0.01 | 0.01 | 74 | 1013.9 |
| 20260503225352 | 52 | 133 | 1.7 | 2.6 | 0.00 | 0.01 | 0.01 | 74 | 1013.8 |
| 20260503224848 | 51 | 130 | 2.6 | 4.3 | 0.00 | 0.01 | 0.01 | 74 | 1014.1 |
| 20260503224346 | 51 | 117 | 3.5 | 4.3 | 0.00 | 0.01 | 0.01 | 74 | 1014.1 |
| 20260503223843 | 51 | 148 | 2.6 | 2.6 | 0.00 | 0.01 | 0.01 | 75 | 1014.2 |
| 20260503223341 | 51 | 115 | 2.6 | 2.6 | 0.00 | 0.01 | 0.01 | 77 | 1014.3 |
| 20260503222836 | 51 | 344 | 0.0 | 0.9 | 0.00 | 0.01 | 0.01 | 77 | 1014.3 |
| 20260503222335 | 51 | 128 | 0.9 | 0.9 | 0.00 | 0.01 | 0.01 | 78 | 1014.6 |
| 20260503221832 | 51 | 90 | 0.0 | 0.0 | 0.00 | 0.01 | 0.01 | 80 | 1014.8 |
| 20260503221331 | 51 | 62 | 0.9 | 0.9 | 0.00 | 0.01 | 0.01 | 79 | 1014.7 |
| 20260503220827 | 51 | 9 | 0.9 | 1.7 | 0.00 | 0.01 | 0.01 | 78 | 1015.0 |
| 20260503220324 | 51 | 10 | 0.9 | 1.7 | 0.00 | 0.01 | 0.01 | 79 | 1014.8 |
| 20260503215820 | 51 | 30 | 0.0 | 0.0 | 0.00 | 0.01 | 0.01 | 78 | 1014.8 |